Theta_e
297 297 298 299 299 299 300 301 302 303 305 305 306 308 308 307 311 312 308 312 313 313 314 315 315 316 317 316 318 320 321 322 322 323 322 321 320 320 320 320 319 319 319 318 317 318 317 317 316 314 311 310 309 309 310 309 304 306 306 305 303 300 301 300 298 297 287 286 293 293 290 290 287 287 286 286 286 287 286 284 284 284 283 283 283
296 296 296 297 298 298 299 299 300 300 301 301 301 302 302 302 304 302 304 308 306 310 311 312 312 314 315 317 317 318 320 321 321 321 320 320 320 320 320 318 317 317 318 318 317 315 314 315 316 315 311 310 308 305 304 302 303 304 303 303 303 301 300 300 299 298 294 286 287 286 287 288 288 286 287 285 285 284 284 283 283 283 283 282 282
295 294 296 296 297 296 296 296 295 295 296 295 295 295 295 294 295 297 300 301 300 303 306 308 310 312 314 314 316 317 318 319 320 319 318 317 318 317 317 317 317 316 315 315 315 314 313 313 314 314 312 310 309 307 304 303 303 303 302 301 302 301 298 298 298 294 293 288 287 286 286 286 288 285 285 286 285 285 284 283 283 283 283 283 283
293 294 294 294 289 289 290 288 288 289 291 291 291 292 294 295 294 294 298 297 300 302 301 305 307 309 310 311 312 314 316 317 317 318 319 318 317 317 315 315 314 314 314 313 311 309 309 307 304 301 302 306 306 303 300 301 301 303 303 302 302 301 298 294 296 298 292 289 285 287 285 284 284 282 285 284 283 283 284 284 283 283 282 284 283
291 290 288 288 286 286 286 286 288 289 290 292 293 293 295 295 295 296 297 300 303 302 303 302 305 308 310 311 312 311 312 314 315 315 315 315 316 315 314 313 313 312 312 313 306 310 309 309 309 304 302 302 299 298 297 296 297 297 299 298 298 300 296 293 292 291 289 289 286 285 283 284 281 281 284 283 282 283 282 283 283 283 283 283 284
288 288 286 289 288 290 289 290 292 291 291 293 294 295 297 299 299 300 300 305 303 303 304 305 303 305 306 307 306 305 305 308 310 312 313 313 313 314 314 313 312 311 311 311 311 310 310 309 307 303 303 304 303 301 299 297 297 296 297 298 297 295 294 292 291 288 288 289 287 284 281 283 280 280 282 283 283 283 282 282 282 283 282 281 282
287 288 288 290 292 293 294 293 294 294 293 294 294 296 297 296 297 298 297 297 299 300 301 302 303 303 305 304 303 305 308 308 308 309 310 310 310 310 309 310 310 310 310 311 310 310 310 310 309 306 304 305 304 301 300 299 299 298 298 298 295 294 293 293 290 288 286 286 285 285 283 282 281 281 281 282 283 283 282 282 281 282 282 281 281
286 289 291 292 294 293 294 294 293 295 295 296 296 295 295 295 295 295 294 295 296 297 298 300 300 299 301 302 304 302 303 305 307 308 309 309 309 309 309 309 309 308 307 307 307 307 308 308 307 306 305 304 303 303 302 299 298 297 296 294 292 292 292 291 289 288 287 285 284 282 280 281 280 278 280 281 282 281 282 282 281 280 280 280 280
291 292 292 292 292 292 292 293 294 294 293 293 294 294 294 293 292 291 291 293 294 294 294 295 295 298 297 296 298 298 300 302 302 303 304 305 306 307 307 306 305 305 304 303 301 302 302 302 302 303 302 296 297 298 298 298 299 297 294 293 292 291 290 290 289 288 287 285 282 281 280 280 281 280 280 281 281 282 282 281 281 280 279 279 280
292 293 293 292 292 292 292 293 293 292 291 292 292 290 289 289 289 289 291 290 290 289 289 290 292 293 295 296 294 296 298 300 297 296 297 302 304 305 305 304 302 301 299 299 297 296 297 298 297 294 294 292 292 293 294 295 295 298 298 295 293 292 291 289 288 288 287 285 283 280 280 280 281 282 282 282 282 280 280 281 280 280 279 279 280
291 292 293 292 292 292 292 291 292 293 293 290 289 289 289 288 288 288 288 288 289 288 289 291 291 291 291 291 292 294 295 297 294 296 297 297 298 301 303 303 301 297 296 296 297 295 294 294 294 293 292 291 291 291 293 293 294 293 293 292 292 292 289 288 288 288 287 286 283 280 281 281 281 282 282 281 280 280 280 280 280 279 278 277 278
292 292 292 291 292 293 291 291 292 290 289 289 288 288 287 288 288 288 288 288 288 288 289 289 289 289 290 290 290 291 292 292 294 295 295 296 295 297 299 299 299 296 294 294 295 293 292 292 292 291 291 291 291 290 290 291 291 291 291 291 291 292 293 292 290 287 285 284 281 281 281 281 280 281 281 280 281 280 280 279 279 279 278 277 277
291 291 290 290 290 290 290 291 290 288 288 288 287 288 288 288 288 288 288 287 287 288 288 288 288 288 288 290 290 290 290 292 293 294 294 295 295 295 296 296 294 294 292 293 293 292 291 291 291 291 291 289 289 291 291 290 289 290 290 289 290 291 292 292 292 291 288 285 283 281 281 280 280 280 281 281 282 280 279 279 279 279 279 278 278
288 289 289 290 290 289 290 289 289 288 288 288 288 288 288 288 287 287 287 287 287 287 287 287 287 287 287 288 288 288 289 290 293 293 293 294 295 295 295 294 292 292 292 292 292 291 291 291 292 291 289 288 289 290 289 289 289 288 288 288 288 288 289 290 289 288 285 283 282 282 281 281 282 282 281 282 280 280 279 279 280 279 278 278 278
290 289 289 289 288 288 289 289 289 288 288 287 288 288 287 287 287 287 288 288 288 287 287 287 287 287 287 287 287 288 289 291 292 292 293 293 294 294 293 292 291 290 290 290 290 290 290 290 290 291 289 289 289 289 289 289 288 288 287 287 287 287 287 287 287 285 283 282 281 279 280 281 280 280 281 282 282 282 282 281 281 280 279 278 276
289 288 290 289 289 288 288 288 288 287 287 287 287 287 286 287 287 287 287 287 287 287 287 287 287 287 287 287 287 288 288 290 291 291 292 293 294 292 291 290 289 289 289 289 289 289 289 289 289 288 288 288 288 289 289 288 287 287 286 286 286 286 285 286 287 286 283 281 280 280 280 282 284 281 282 282 282 280 278 277 278 276 275 275 276
288 288 288 289 288 287 287 288 287 287 287 287 287 287 287 287 287 287 287 287 287 287 287 287 287 287 287 287 287 287 288 289 290 291 292 293 292 289 289 290 289 288 288 288 288 288 288 288 288 288 288 287 288 290 291 288 287 286 286 286 286 285 285 285 287 288 287 287 287 286 286 287 287 287 287 286 283 280 278 277 276 276 275 274 275
288 288 289 290 288 288 287 287 287 286 287 287 287 287 286 287 287 287 287 287 287 287 286 287 286 286 286 287 287 287 287 287 289 290 291 292 291 289 288 289 288 288 287 286 287 287 287 287 287 288 287 287 288 290 292 288 286 286 286 286 285 284 284 283 281 282 287 287 287 287 287 287 287 287 288 287 285 283 280 279 277 276 276 276 276
288 288 289 289 287 288 287 287 287 286 287 287 287 287 287 287 286 286 286 287 286 286 286 287 286 286 286 286 286 286 287 287 288 290 291 292 289 287 288 288 288 287 287 286 286 286 286 286 286 286 287 287 289 290 291 288 286 286 286 285 285 284 285 282 280 278 278 277 279 280 282 284 283 283 285 286 285 283 281 280 278 277 276 276 275
288 288 288 287 287 287 287 287 286 287 287 287 286 287 286 286 286 286 286 286 286 286 286 286 286 286 286 286 286 286 286 287 287 289 290 291 291 288 287 288 288 287 287 286 287 286 285 285 285 287 289 290 290 290 291 290 286 286 285 284 284 284 282 280 278 277 276 277 277 278 277 278 279 280 282 283 283 281 280 280 278 278 277 276 274
288 288 287 287 286 286 286 286 286 286 287 287 286 286 286 286 286 286 286 286 286 286 286 286 286 286 286 286 286 286 286 286 286 288 289 290 291 290 288 287 287 287 287 286 286 286 286 285 285 286 287 289 290 290 290 290 289 286 285 284 284 282 281 278 278 281 279 279 278 278 276 276 277 279 279 280 281 281 280 280 278 278 277 275 274
287 287 286 286 286 286 286 286 286 286 286 286 286 286 286 286 286 286 286 286 286 286 286 286 286 286 286 286 286 286 286 285 286 287 288 289 289 290 288 287 287 287 287 286 286 286 286 285 285 285 286 287 288 289 290 290 290 287 285 285 285 285 281 279 279 279 278 277 277 277 277 277 276 276 277 277 278 278 279 279 279 277 278 277 276
287 286 286 286 286 286 286 286 286 286 286 286 286 286 286 286 286 286 286 286 286 285 285 286 286 286 286 286 286 286 285 286 285 286 286 288 289 289 290 289 290 288 286 286 286 286 286 285 285 285 286 286 287 288 289 289 289 287 289 287 285 285 282 279 279 278 277 277 277 277 277 276 276 276 276 276 277 277 277 278 278 278 277 277 277
286 286 285 285 285 286 286 286 286 286 286 286 286 286 286 286 286 286 286 286 286 286 285 285 286 285 285 286 286 286 286 286 285 285 285 287 288 288 289 289 290 288 286 286 286 285 285 285 284 285 286 286 287 287 288 288 287 288 288 286 285 284 279 278 278 278 277 277 276 276 276 276 276 276 276 276 276 276 276 277 276 276 275 275 275
286 285 285 285 285 285 286 286 286 286 286 286 286 286 285 286 285 285 286 286 286 285 285 285 285 285 285 285 285 286 286 285 285 285 285 285 286 287 287 287 288 289 287 285 284 284 285 286 286 286 286 286 286 287 287 287 288 288 287 286 284 280 278 277 277 277 277 276 276 277 277 277 276 276 277 276 276 276 275 275 275 274 273 273 273
285 285 285 285 285 285 285 285 285 285 285 286 286 286 286 286 285 285 285 285 285 285 285 285 285 285 284 285 284 284 284 283 282 282 282 281 282 283 284 284 284 285 285 284 284 285 286 286 286 285 285 285 284 284 284 285 286 286 286 284 279 277 277 277 277 277 277 277 277 276 276 276 276 276 276 275 274 273 273 272 272 271 271 269 269
283 283 283 282 283 284 285 285 285 285 285 285 285 285 286 285 285 285 285 285 285 285 284 284 283 283 283 282 281 279 278 277 278 278 278 278 278 278 279 279 281 282 280 280 281 281 282 282 282 284 284 284 284 283 283 283 282 282 281 281 279 278 278 278 278 277 277 277 277 277 277 276 275 274 273 273 273 273 273 272 272 270 270 269 269
281 280 279 279 280 281 282 280 281 282 282 284 284 284 284 284 283 282 282 283 282 282 282 281 280 280 279 277 275 275 275 275 276 277 278 277 277 277 275 276 275 274 276 276 276 277 276 278 278 276 276 276 275 275 274 275 275 277 277 278 278 279 279 280 279 277 277 277 276 275 274 273 273 273 273 272 272 272 272 271 271 270 270 267 267
277 276 276 276 277 277 279 279 278 278 276 276 277 278 280 280 279 277 277 276 277 278 278 278 277 275 274 274 274 273 273 274 276 284 281 285 280 277 277 276 275 272 277 282 272 271 272 272 272 273 272 273 273 273 273 273 274 275 276 279 280 280 278 278 277 277 277 276 275 275 274 273 272 272 271 271 271 270 271 269 270 269 268 268 266
276 276 276 276 275 275 274 273 273 274 275 275 275 276 279 280 277 275 273 280 283 283 281 275 273 272 274 272 273 273 273 275 284 284 284 285 285 285 285 286 286 279 282 283 275 268 267 269 269 270 270 270 271 272 273 272 273 273 274 279 279 279 279 278 278 277 276 275 275 274 274 273 272 272 271 271 271 271 271 271 268 270 267 267 267
276 275 275 274 275 275 274 273 273 273 273 274 275 274 275 277 282 282 282 281 283 283 283 283 283 282 278 273 278 283 283 283 283 283 284 284 284 285 285 285 285 285 284 274 269 268 268 269 269 269 269 269 270 271 272 272 273 272 273 273 274 276 276 277 277 276 275 275 274 274 273 273 273 273 272 271 271 271 269 270 269 268 268 267 266
276 275 275 274 275 274 274 274 273 273 272 273 274 274 274 274 276 281 282 281 281 282 282 282 283 282 282 280 276 274 280 282 283 283 283 283 284 284 284 285 285 285 285 283 271 269 268 268 269 269 269 269 270 271 271 271 272 272 272 271 272 273 275 276 277 276 275 275 274 274 273 273 273 272 272 272 271 270 270 268 268 267 267 267 267
275 274 274 274 274 274 274 274 274 274 273 273 272 273 273 274 274 274 277 280 279 279 281 281 280 280 280 280 281 280 280 281 282 282 283 283 283 283 284 284 284 285 284 276 273 273 270 270 270 271 270 271 271 270 270 270 271 271 271 272 273 273 274 275 276 274 274 275 274 274 273 273 272 272 271 271 270 269 270 269 268 267 266 266 266
274 275 274 274 274 273 273 273 273 272 272 272 272 271 271 272 272 272 272 270 272 275 277 278 278 277 278 279 279 280 281 281 282 282 282 282 283 283 282 280 282 283 281 276 276 275 275 274 274 274 274 273 273 273 273 273 273 273 273 273 273 272 272 271 270 271 270 271 271 271 270 270 271 271 271 271 270 270 269 269 268 267 266 266 265
273 272 272 273 273 272 272 272 272 271 271 271 271 271 270 269 270 270 270 270 268 268 266 269 274 276 274 275 277 278 279 280 280 280 280 281 281 281 280 276 276 277 277 274 275 276 276 277 276 276 276 275 276 275 275 275 276 275 275 275 274 273 272 271 272 272 271 270 269 269 270 270 271 271 270 270 269 269 268 268 267 267 266 266 266
272 272 271 271 271 271 271 271 271 271 270 269 270 270 270 270 270 269 269 268 267 266 266 266 267 272 273 273 275 276 277 278 278 278 278 278 278 278 273 274 275 276 276 277 276 277 277 277 277 277 277 277 277 277 277 276 276 276 276 276 275 275 275 274 273 272 272 272 272 271 272 271 270 270 269 269 269 268 268 268 268 267 267 266 265
271 270 270 270 270 270 270 269 269 270 271 269 269 269 269 269 268 267 267 266 266 264 263 264 264 264 269 269 271 273 275 275 275 275 275 275 275 272 271 273 274 275 275 275 275 275 275 276 276 276 276 275 275 276 276 276 276 276 276 275 275 275 275 274 274 272 272 271 271 271 270 270 269 269 269 268 268 268 267 267 267 266 266 266 266
269 269 269 269 269 269 269 269 270 270 269 269 268 268 268 267 267 267 266 266 265 264 263 263 266 264 265 265 269 268 268 271 271 270 270 270 268 267 268 269 271 271 271 272 272 272 272 273 273 273 274 274 273 273 273 273 273 273 273 273 273 273 274 273 272 272 271 270 270 270 269 268 268 268 267 267 267 267 266 266 266 265 265 265 265
269 270 271 271 270 269 268 268 268 268 267 267 267 267 267 266 265 265 264 263 263 264 263 262 263 263 263 264 264 266 266 264 264 264 264 264 265 264 264 265 266 267 268 268 268 269 269 269 270 270 271 271 271 271 271 270 271 271 271 271 271 271 271 271 271 270 269 269 269 268 267 267 267 266 267 266 266 266 266 265 265 265 264 263 263
269 269 270 270 269 269 268 268 267 267 266 266 265 266 266 265 265 264 263 264 264 262 261 262 261 260 262 263 264 263 262 262 261 261 261 262 262 262 262 262 263 263 264 265 266 266 266 267 268 268 268 268 268 268 268 268 268 269 269 269 269 268 269 269 269 269 268 268 268 267 267 266 266 265 265 265 265 265 265 265 265 264 264 263 262
268 268 268 268 268 267 267 266 265 265 265 265 264 265 265 265 264 264 263 263 263 262 261 260 258 259 262 267 269 266 259 259 260 260 261 261 261 260 261 260 261 261 262 263 263 264 264 264 264 265 265 265 265 265 265 265 265 265 265 266 266 266 266 265 265 265 266 266 266 265 265 265 265 265 264 264 266 265 264 264 263 262 262 261 261
267 267 266 266 266 266 265 265 265 265 265 265 264 264 264 264 263 263 263 262 262 261 259 258 258 259 264 268 267 266 260 259 260 260 260 260 260 259 260 259 258 259 258 259 259 260 260 260 260 260 260 261 261 261 261 261 261 261 262 263 264 265 265 266 265 265 265 265 265 265 265 265 265 264 264 265 263 263 262 261 261 260 260 260 260
266 266 265 265 265 265 264 264 263 263 263 263 263 264 263 262 261 262 262 261 261 260 259 258 259 259 261 266 265 265 258 258 261 259 259 259 258 259 257 257 257 257 257 257 257 258 257 257 257 257 257 258 258 257 257 257 258 259 260 262 263 264 264 265 265 265 265 265 264 264 264 263 263 262 261 261 262 261 260 259 259 259 259 258 258
265 265 265 264 264 264 263 263 263 262 262 263 263 261 261 260 259 259 259 259 259 259 258 258 258 258 258 259 260 259 256 257 256 256 258 259 258 257 257 256 257 257 257 257 256 256 256 256 256 256 255 255 255 254 255 255 255 255 257 260 262 263 264 264 264 264 264 263 263 263 262 261 261 260 260 260 257 257 257 257 257 258 258 257 257
264 264 264 263 263 263 262 261 262 262 262 261 260 259 260 259 258 258 258 257 259 258 257 258 258 257 258 256 256 256 254 254 258 258 257 256 257 256 255 256 256 257 256 256 256 255 255 255 255 254 254 255 254 254 255 255 254 254 255 258 260 261 262 262 262 262 262 262 262 261 261 260 259 258 257 257 257 257 257 257 257 259 258 257 256
264 264 263 263 262 262 261 261 261 260 260 259 259 257 257 257 257 258 258 258 258 257 256 256 256 257 256 255 256 257 255 255 255 256 258 257 256 256 255 255 255 255 255 254 254 254 255 254 254 253 254 254 255 254 254 253 253 253 253 254 257 258 260 261 261 260 259 259 260 260 260 260 258 258 259 256 256 256 255 255 256 256 256 256 255
264 263 263 263 262 262 262 262 261 260 259 259 258 258 257 256 256 257 259 258 257 257 255 254 253 254 254 255 255 254 256 256 255 256 256 257 255 254 253 254 255 255 254 253 253 252 252 253 253 253 253 253 253 254 254 253 253 253 253 253 253 255 255 256 258 257 256 257 259 259 260 260 259 257 257 257 257 256 256 255 255 254 254 255 254
263 263 262 262 262 261 261 262 261 260 260 260 259 258 257 256 255 255 254 255 254 255 254 253 253 253 255 255 256 255 256 255 256 257 256 254 253 252 252 252 253 253 252 252 252 252 252 252 251 251 252 252 253 253 253 253 253 253 252 253 253 253 256 257 255 255 253 253 254 256 258 258 257 256 256 255 254 255 254 254 255 255 254 254 255
262 262 261 261 261 261 261 260 260 259 259 259 258 256 256 254 254 253 253 254 254 254 253 253 252 253 254 254 255 255 255 257 253 253 252 252 252 251 251 251 254 252 252 252 253 252 251 251 252 251 251 250 252 252 252 252 253 253 252 253 256 258 260 260 258 254 257 253 252 252 253 254 254 254 255 254 254 254 254 253 253 254 254 254 254
261 261 261 260 260 259 259 258 258 257 258 257 256 255 255 254 253 254 253 253 253 253 252 252 253 253 252 253 255 254 255 254 253 252 252 251 251 250 251 251 250 251 252 251 252 252 251 250 250 251 252 251 252 252 251 251 251 253 253 256 259 262 262 261 260 259 256 252 252 252 252 253 253 253 254 254 254 254 254 254 253 255 254 252 253
260 260 260 259 259 259 258 257 257 256 256 255 254 254 254 253 252 252 253 252 251 251 253 251 249 251 252 252 254 253 253 252 253 252 252 251 251 250 251 251 252 251 251 252 252 251 251 251 251 252 250 252 252 252 251 252 251 254 257 261 262 262 261 261 257 257 259 258 251 252 253 254 253 253 252 252 251 251 253 254 253 253 252 252 253
Wind_Speed
1 2 0 1 1 3 3 3 3 2 3 3 4 5 4 4 5 5 4 6 5 7 7 8 8 8 9 9 9 9 10 10 10 11 12 11 8 7 9 9 11 10 11 12 9 9 11 13 12 11 8 8 8 9 11 12 6 6 8 9 9 7 9 10 10 9 1 1 3 7 6 9 8 8 9 7 6 6 5 5 6 6 6 6 5
1 1 1 1 1 1 1 1 1 1 2 2 4 4 4 4 4 3 4 5 4 6 6 6 6 7 8 8 8 9 9 10 9 9 10 13 13 9 9 9 8 9 10 14 13 10 8 10 12 13 12 12 11 10 9 6 8 9 9 10 11 11 9 9 10 9 9 2 3 2 4 7 9 7 11 9 7 5 6 5 5 6 6 6 5
2 2 1 1 1 0 0 1 1 1 1 2 3 3 3 3 3 3 4 4 4 4 5 5 6 6 7 7 8 8 9 10 10 10 10 10 12 11 8 8 10 11 11 10 10 9 10 10 11 11 11 14 13 13 11 11 10 12 12 9 11 10 10 10 7 8 8 6 5 6 7 7 9 8 7 6 6 7 8 8 7 6 4 4 4
3 2 1 1 0 0 0 1 1 2 2 2 3 3 3 3 3 2 3 3 4 4 4 4 5 6 6 6 7 8 9 10 10 10 13 11 9 10 10 9 9 9 9 10 9 9 10 8 7 3 4 10 10 9 8 8 10 10 11 10 11 11 9 9 9 8 7 8 6 9 7 7 6 2 5 4 7 7 8 6 5 6 4 4 3
2 2 2 2 1 1 1 2 2 3 2 2 3 2 2 3 3 3 3 4 4 3 4 3 4 5 6 8 8 8 8 8 9 8 7 8 9 9 8 8 8 8 8 9 9 10 10 12 12 10 9 9 5 6 6 8 8 8 9 8 8 8 7 9 9 6 6 9 6 4 4 4 2 2 7 8 5 6 3 6 6 6 5 4 3
3 3 3 3 1 0 0 1 1 1 1 2 2 2 2 2 3 3 3 5 5 5 4 4 4 4 4 5 4 4 4 5 6 7 7 7 8 9 9 8 8 8 9 8 8 9 10 10 9 9 11 13 13 10 10 11 9 9 10 10 10 9 9 8 7 7 7 8 9 6 4 7 4 3 6 7 8 8 6 5 3 4 4 3 4
4 4 3 3 2 0 0 1 2 2 3 3 3 3 2 1 2 2 2 3 3 4 3 3 4 4 4 4 4 4 5 4 5 6 6 6 6 6 6 7 7 8 9 9 9 9 10 10 10 11 13 13 12 12 12 11 11 14 14 12 10 9 9 9 8 9 8 8 5 7 7 5 6 7 4 5 5 6 8 6 6 4 4 5 4
4 4 4 2 1 1 1 1 2 2 3 3 4 3 2 3 3 3 3 3 3 3 3 3 3 3 3 4 4 4 4 4 5 5 5 6 6 6 7 8 9 9 8 8 7 9 10 11 10 9 11 9 8 11 12 11 9 9 7 6 7 8 9 8 8 8 8 7 7 7 5 7 3 0 2 4 5 6 6 7 9 5 5 3 4
4 4 3 3 2 2 3 2 2 3 3 2 3 3 3 3 3 3 3 3 3 3 3 2 3 4 3 3 3 3 3 4 4 4 5 6 6 7 7 7 7 7 7 7 6 6 6 6 7 9 8 11 15 12 11 13 11 11 7 7 8 9 6 6 7 8 7 7 6 4 7 7 8 8 8 9 12 10 5 5 4 2 3 2 3
5 4 4 3 2 2 2 2 2 1 2 2 3 2 2 3 3 3 3 2 3 2 3 2 2 3 4 5 4 4 4 3 5 9 8 6 6 6 6 6 6 6 7 7 6 5 6 6 6 6 5 8 8 9 10 12 12 11 10 12 13 11 11 10 9 8 8 9 9 8 8 10 11 12 11 9 4 4 5 5 7 3 2 3 4
4 5 4 3 2 2 2 2 1 2 3 2 3 3 3 2 2 2 2 3 3 3 2 3 2 1 2 3 4 4 3 3 6 8 8 9 6 6 7 7 6 5 5 6 7 7 6 5 5 6 6 6 7 9 9 10 10 9 4 6 5 9 8 7 7 7 9 11 8 8 11 12 11 7 9 7 5 7 6 6 6 5 4 3 6
5 4 3 3 3 3 3 2 2 3 2 3 2 2 2 1 2 2 2 3 2 2 3 3 3 3 3 3 3 4 5 6 8 9 10 10 8 5 5 6 6 5 5 5 6 5 5 5 5 3 3 3 3 3 4 6 8 6 3 7 11 12 11 12 11 9 10 10 9 13 11 12 9 9 8 6 7 6 5 6 6 5 5 6 4
4 4 3 3 3 3 4 3 3 2 2 2 1 1 0 1 2 2 2 2 2 3 3 3 3 3 3 4 4 4 4 6 9 9 8 8 9 7 5 5 5 5 4 5 5 5 4 5 6 4 4 5 5 5 4 3 3 6 8 9 10 13 13 13 13 12 10 12 13 11 13 10 9 9 9 10 7 7 5 5 6 6 6 5 7
5 4 3 3 3 3 4 3 3 2 1 1 0 0 1 1 1 1 1 2 3 3 2 3 2 3 3 3 3 3 4 6 8 9 9 10 10 8 5 4 4 5 5 5 4 5 5 6 6 6 4 4 4 5 6 7 7 5 5 6 7 9 11 13 14 12 9 11 11 13 9 7 10 10 8 7 9 9 9 8 6 6 7 8 1
4 4 4 3 2 2 2 2 2 1 1 1 0 1 2 2 2 2 1 2 2 2 3 3 3 3 3 3 4 4 4 7 9 9 9 8 8 6 4 4 4 3 3 3 3 3 4 4 4 5 4 4 3 4 4 5 5 6 6 6 7 7 8 10 10 8 7 7 8 5 3 5 2 4 7 9 10 8 8 7 8 6 2 3 2
4 3 3 3 3 2 3 2 2 1 1 0 1 1 1 1 2 2 2 2 2 3 4 3 4 5 4 4 5 5 5 9 9 9 10 10 9 5 3 2 3 3 3 2 2 3 2 2 2 3 2 2 1 2 3 1 2 5 6 6 6 6 8 8 7 5 5 4 4 4 4 6 7 6 7 7 6 7 7 7 7 5 4 1 5
5 5 4 3 2 2 2 2 2 2 1 1 0 1 1 2 2 1 2 3 3 4 3 3 3 4 5 4 5 5 5 8 10 10 10 10 7 3 2 2 2 2 2 1 1 0 0 0 0 1 1 2 3 6 8 6 4 6 7 7 6 6 8 4 2 4 3 3 5 6 6 7 9 9 11 12 9 9 7 6 4 5 5 5 6
5 5 4 4 1 3 3 3 2 2 2 1 0 1 1 1 2 1 2 3 3 3 3 3 3 3 4 5 5 5 5 8 11 11 11 12 7 3 3 2 2 2 2 2 2 2 2 2 1 2 2 2 3 7 9 6 5 6 6 6 7 8 8 1 0 0 3 4 5 6 7 8 9 11 12 13 14 10 9 9 6 7 6 6 9
6 6 5 4 2 3 3 3 3 3 3 2 1 2 2 2 1 2 2 2 3 2 3 3 3 4 4 4 6 6 5 7 9 10 10 10 6 3 3 3 3 3 3 3 2 2 2 2 2 2 2 1 3 6 8 6 5 5 7 6 8 10 6 2 4 3 1 2 1 1 1 4 3 4 6 12 14 9 5 4 7 7 8 6 6
6 5 5 5 5 4 3 4 3 4 4 4 4 3 2 3 3 3 3 3 3 3 3 4 5 4 4 5 5 4 6 6 7 11 11 11 10 4 3 3 4 4 3 3 4 3 3 3 3 4 5 5 6 7 8 10 8 5 4 6 8 11 1 3 3 2 1 3 2 1 2 2 3 3 4 6 6 5 5 5 6 6 7 6 5
6 6 5 6 5 4 3 4 4 3 4 5 5 4 4 4 3 4 4 3 4 4 5 4 4 4 4 4 4 5 5 6 8 10 10 11 11 8 4 4 3 4 4 3 3 3 4 2 2 3 5 7 8 8 9 11 10 6 5 7 6 1 5 4 4 7 6 4 4 2 1 1 1 2 1 2 4 4 4 4 5 5 6 6 5
7 7 7 6 6 5 5 4 4 5 5 5 6 6 4 4 4 4 4 4 5 5 3 3 3 3 3 3 3 4 4 6 5 8 10 11 12 12 5 4 4 4 5 4 3 3 3 4 3 3 4 7 8 10 10 11 12 6 7 7 4 5 4 4 4 4 3 2 2 2 2 3 4 3 4 4 5 4 4 5 4 5 5 5 7
7 7 7 7 6 6 5 6 5 5 6 7 7 6 5 5 4 4 5 5 5 4 4 3 3 3 3 3 3 3 3 4 6 6 7 8 9 10 10 7 7 4 3 4 4 4 3 3 4 4 5 7 9 10 10 11 8 6 11 7 6 6 5 3 3 3 4 5 5 5 4 4 4 6 6 7 5 3 2 3 4 4 5 3 3
8 8 7 7 7 6 6 6 6 6 7 7 7 7 5 5 5 4 5 5 5 5 3 2 3 4 5 4 4 4 4 4 5 7 7 9 9 10 10 10 9 4 2 2 3 4 4 4 4 5 5 7 8 9 9 8 6 9 9 6 4 4 3 4 4 5 4 3 4 4 4 4 5 5 4 2 0 1 2 2 1 1 2 2 4
8 8 8 7 7 6 6 5 5 5 5 6 7 6 5 5 5 4 5 5 5 5 3 3 4 3 3 4 4 5 5 5 5 7 10 10 10 11 12 12 11 10 4 3 2 3 4 5 5 5 5 6 8 8 7 7 8 6 5 6 4 2 1 1 1 1 2 3 4 4 4 2 2 2 1 1 1 1 2 1 1 2 2 2 3
10 9 8 7 7 7 8 7 6 6 6 5 5 4 5 5 5 5 5 5 5 5 4 4 4 4 4 4 4 4 5 5 6 7 7 8 7 10 11 10 11 10 7 5 6 6 7 7 7 6 6 5 4 3 3 3 4 4 4 4 2 3 3 3 2 3 4 4 4 3 2 1 2 2 3 3 4 4 3 4 4 4 4 4 3
10 9 9 8 7 7 8 7 7 6 6 6 5 5 4 4 5 5 4 5 5 5 5 5 4 4 4 3 3 3 4 4 5 5 6 6 6 6 7 8 8 8 6 6 6 6 7 7 6 7 6 7 6 5 5 5 3 2 0 1 1 3 3 4 5 5 5 4 5 5 5 3 2 3 2 3 3 2 3 3 4 5 3 3 4
10 10 9 7 7 7 7 8 8 6 5 6 6 5 4 4 4 4 4 3 5 5 5 5 5 4 3 2 2 2 3 3 4 4 4 4 4 4 4 4 5 4 5 4 4 4 4 5 6 5 5 5 6 5 5 4 3 4 3 1 0 0 1 1 1 2 3 2 3 1 1 2 1 0 0 1 2 2 1 3 3 4 3 4 3
9 9 8 7 7 6 6 6 6 7 7 6 5 5 5 5 5 4 3 2 2 3 4 4 4 2 4 5 4 3 2 3 3 3 4 5 3 2 3 3 2 3 2 1 3 3 5 6 6 6 6 5 5 5 5 5 5 4 4 4 2 1 1 1 4 4 2 2 3 2 2 0 1 1 2 2 3 3 3 5 5 5 4 4 8
10 9 8 7 7 7 6 6 5 6 7 7 7 7 8 8 6 6 5 8 10 9 7 4 2 3 6 3 2 4 2 1 6 10 9 9 9 9 7 6 4 1 1 6 5 3 3 4 5 5 5 5 5 4 5 4 3 4 2 2 2 1 2 2 3 3 1 1 2 2 3 3 4 4 4 5 5 5 5 6 5 4 5 7 7
9 8 7 7 7 7 6 6 6 7 7 7 7 8 8 8 12 12 9 9 11 13 13 14 13 11 7 5 6 10 10 11 11 10 10 10 10 10 10 8 8 5 3 3 5 4 3 5 4 4 3 3 3 3 3 4 4 3 4 2 2 2 2 3 3 2 2 3 3 3 4 4 5 5 6 6 5 4 3 3 4 4 6 6 7
11 9 8 8 8 7 7 8 8 8 7 7 8 8 9 10 8 10 13 15 14 15 15 14 14 14 14 10 6 5 8 10 10 10 10 9 9 8 8 9 8 7 5 7 3 3 3 3 3 3 3 4 3 3 3 4 4 4 4 3 4 3 3 4 3 2 3 4 4 4 5 5 5 5 5 5 4 5 4 4 5 5 6 6 8
11 10 9 9 9 9 8 8 8 8 9 9 8 8 9 9 10 8 7 11 14 15 15 14 14 14 14 13 13 10 8 9 10 10 9 9 9 8 8 10 11 10 6 4 4 2 2 3 3 3 3 4 5 4 4 4 4 4 4 3 4 4 4 4 2 3 4 5 4 5 5 5 5 5 5 4 5 6 5 5 5 5 5 6 7
10 10 10 10 10 8 8 8 8 7 7 7 8 8 7 8 9 9 9 6 5 8 10 13 14 12 13 14 12 12 11 11 12 12 11 10 9 9 9 6 11 14 10 5 5 4 2 3 2 3 3 3 4 4 4 5 4 3 4 4 5 4 4 1 1 4 3 4 5 4 4 4 4 5 6 5 5 5 5 5 5 5 6 7 7
8 8 11 8 7 8 7 7 8 8 8 8 8 8 8 7 7 7 7 7 6 5 2 4 8 12 9 9 12 12 12 12 13 14 15 14 11 9 9 7 7 6 6 4 4 3 3 3 3 3 3 3 4 4 4 4 4 4 4 4 4 4 4 2 4 4 4 4 4 4 5 5 4 5 5 5 5 5 6 5 5 5 6 6 6
8 7 7 8 7 6 7 7 7 7 8 7 7 7 7 8 8 7 7 6 6 5 3 3 1 5 11 13 13 12 12 13 14 15 15 15 13 9 6 6 5 5 5 5 5 5 4 4 4 4 4 4 4 4 4 4 4 4 4 4 4 4 4 4 3 4 4 4 4 5 5 4 4 4 4 5 6 6 6 6 6 5 6 5 5
7 7 6 6 6 6 6 6 6 7 7 7 8 8 7 7 8 7 7 6 6 4 5 2 3 2 4 6 9 10 12 12 13 15 15 15 14 9 6 5 5 4 5 5 5 5 5 5 5 5 5 5 5 5 5 5 5 5 5 5 5 5 5 4 4 3 4 4 4 4 4 4 4 4 4 6 6 5 5 5 6 6 5 5 5
6 7 7 6 7 7 7 7 7 7 8 7 6 7 7 7 7 6 7 6 5 5 5 3 4 5 6 5 6 5 6 7 8 10 11 11 10 7 6 5 5 5 5 5 5 5 5 5 6 6 5 5 5 5 5 5 5 6 6 6 6 5 7 6 4 5 4 4 4 4 4 4 4 4 4 5 6 6 5 5 5 5 5 5 3
7 8 10 7 6 7 7 7 7 7 7 7 6 7 8 7 6 6 6 6 5 5 5 4 5 5 4 3 4 5 5 7 8 7 6 6 5 5 5 5 5 5 5 4 5 5 4 5 5 5 5 5 5 5 5 5 6 5 6 6 6 5 5 4 5 4 4 4 4 4 4 4 4 4 4 4 6 6 6 5 5 5 5 4 4
8 7 7 7 8 7 7 7 7 7 7 7 6 6 7 6 6 6 6 6 6 5 5 6 6 4 3 3 3 4 6 5 3 3 3 4 4 4 5 5 5 3 4 4 4 4 4 4 5 5 5 5 6 6 5 6 6 6 5 5 5 5 6 5 5 5 4 4 4 4 4 4 4 4 4 4 5 5 6 5 5 4 4 4 4
7 7 7 6 7 8 7 7 6 6 5 6 6 6 7 7 6 6 6 7 6 6 6 6 4 3 2 5 7 7 5 4 3 2 3 3 3 4 4 4 4 4 4 3 3 4 4 4 4 4 4 5 5 5 5 5 5 5 5 6 5 5 5 4 4 4 5 4 5 5 4 4 4 5 6 5 5 5 4 4 4 3 3 3 3
7 7 7 7 7 7 7 7 7 6 5 7 6 6 7 7 6 6 7 6 6 6 6 4 2 1 4 7 7 7 5 2 3 4 3 3 4 3 4 4 3 2 3 3 3 3 3 3 3 3 4 3 4 4 4 4 4 4 5 5 5 5 5 4 4 4 5 5 5 6 5 5 5 5 6 5 4 4 4 4 4 3 4 3 3
7 7 7 7 6 6 7 7 6 6 6 6 6 5 6 6 6 7 6 6 4 4 4 3 1 1 2 5 6 6 4 4 4 3 3 3 3 3 3 2 2 2 1 1 1 1 1 1 2 3 2 4 3 3 3 4 4 4 4 4 5 5 5 4 5 5 5 5 5 5 5 5 5 5 5 5 5 4 4 3 3 2 3 2 2
7 7 7 7 7 7 6 6 6 6 6 6 6 7 6 6 6 5 6 5 4 4 3 2 1 2 2 4 4 5 3 4 3 3 2 3 2 2 2 2 2 2 3 2 2 1 1 1 2 3 3 3 3 3 4 3 3 3 3 4 5 5 4 4 4 4 5 5 5 5 5 5 5 6 5 5 3 4 3 2 2 2 2 2 2
7 7 7 7 6 7 7 6 6 7 7 7 6 6 6 5 5 5 5 5 5 4 3 2 1 1 3 2 2 3 2 2 3 3 2 1 1 2 2 3 2 3 2 3 2 1 2 2 2 2 3 4 3 3 4 4 3 3 3 4 4 5 4 4 4 4 4 5 5 5 5 6 6 6 5 4 3 3 3 3 2 2 2 2 3
6 6 7 7 7 7 7 6 7 6 6 6 6 6 5 5 4 4 5 4 4 3 3 2 1 1 2 1 1 3 1 1 2 0 1 1 1 2 2 2 3 3 3 3 3 2 2 2 2 2 3 4 5 5 5 3 4 3 4 3 4 5 5 5 5 4 4 4 5 5 5 5 5 5 5 4 3 2 3 2 2 3 4 3 3
6 6 7 6 7 7 6 6 6 5 6 5 5 5 4 3 3 3 4 5 3 4 3 1 2 1 1 1 1 1 1 1 1 1 1 1 1 1 2 3 4 3 4 3 3 3 2 2 2 2 3 3 4 4 5 4 4 4 3 4 4 5 5 5 5 4 5 5 5 4 5 5 5 4 5 2 1 1 1 2 3 3 3 3 3
6 5 6 5 5 5 6 5 5 5 6 5 4 4 4 3 2 3 3 3 2 3 1 1 1 0 1 0 0 0 1 1 1 2 1 1 2 2 2 2 3 3 3 3 3 2 2 2 3 3 3 3 4 4 5 4 4 5 4 5 5 5 7 7 5 5 4 5 5 5 4 4 4 3 1 1 2 2 2 2 1 1 3 2 3
5 5 5 5 5 4 4 4 5 5 5 4 4 3 4 2 2 1 1 1 1 1 1 0 0 0 0 1 1 1 1 2 1 2 2 2 3 3 3 3 3 3 3 3 4 3 3 3 2 3 3 3 5 4 5 5 5 5 5 5 7 10 10 9 6 4 6 4 4 3 3 2 2 2 1 1 2 2 2 1 2 2 1 1 2
4 4 4 4 5 4 4 4 5 5 4 4 4 3 2 2 1 1 1 1 0 0 0 0 0 1 1 1 3 2 1 2 2 3 3 4 4 3 3 4 3 4 4 3 4 4 4 3 3 4 4 4 4 4 4 5 4 6 5 7 10 11 9 9 8 7 4 2 2 2 2 1 1 1 1 2 2 2 3 2 2 4 2 3 3
4 5 4 4 4 4 4 4 4 4 4 4 4 2 2 1 1 0 0 0 1 1 1 1 2 1 1 2 3 2 3 4 4 4 4 4 4 4 4 4 5 4 4 5 5 4 4 4 4 5 4 4 4 5 4 5 5 6 9 11 10 9 10 8 5 6 5 2 1 1 1 1 1 1 1 1 2 2 5 3 3 3 3 3 2
Wind_Direction
169 225 155 209 205 236 243 248 253 246 257 244 242 251 252 248 250 241 250 245 233 236 236 233 232 231 231 229 231 232 233 235 233 235 235 241 248 246 245 236 237 241 239 246 243 246 238 222 211 205 192 203 207 201 210 213 190 185 194 196 203 191 189 199 206 235 247 348 174 188 178 160 185 193 184 186 178 182 174 189 197 201 209 211 214
205 242 222 213 246 250 258 270 262 301 261 254 246 246 242 243 247 278 248 255 236 240 239 238 235 234 233 233 231 234 237 239 236 235 240 238 240 241 244 235 241 247 247 238 228 221 230 241 225 208 192 194 197 202 202 185 197 199 198 195 201 199 206 193 214 213 217 126 189 87 164 183 188 190 190 180 188 169 186 198 214 206 206 212 210
190 183 195 211 229 174 205 322 4 345 315 292 281 276 276 278 285 259 265 267 267 248 247 244 238 236 235 235 236 234 234 235 232 231 234 237 237 232 231 239 243 245 239 241 240 233 224 222 228 223 212 209 205 205 193 195 191 197 200 192 200 205 201 208 194 213 210 211 175 179 184 190 198 190 200 189 174 172 184 201 203 212 216 203 204
200 188 179 155 97 94 54 23 34 22 1 342 327 320 309 300 297 274 263 271 279 271 253 247 244 239 238 241 242 244 240 236 234 230 234 239 243 238 233 231 228 230 239 243 233 215 219 231 252 259 239 227 214 198 188 192 188 202 199 197 198 200 203 204 214 205 197 193 199 193 190 171 219 154 175 157 170 186 201 196 196 197 206 204 208
170 161 146 133 44 53 29 32 34 17 10 359 335 316 299 287 282 284 296 301 280 280 285 263 254 248 243 241 235 234 240 244 247 247 245 241 239 239 237 236 238 240 237 233 225 224 222 220 220 200 190 201 192 203 189 197 201 197 204 201 202 202 185 196 206 193 171 200 183 192 166 189 136 154 171 170 194 205 200 199 191 194 191 202 203
171 147 134 135 109 84 78 44 17 316 288 297 293 298 314 342 347 333 329 307 295 281 269 279 262 259 255 254 254 255 250 248 250 255 249 242 239 237 233 230 238 247 247 240 230 221 226 226 221 202 198 201 201 198 190 195 192 198 203 202 199 182 180 193 198 193 195 201 175 164 177 178 175 190 186 180 181 198 211 216 190 182 169 189 226
166 139 138 136 148 113 3 327 299 296 280 266 257 261 282 302 316 303 312 292 286 286 291 286 277 265 265 269 268 267 272 265 253 244 241 239 242 249 253 250 244 242 242 242 236 231 231 235 228 215 212 211 198 192 194 201 200 206 206 201 189 178 184 192 187 196 198 189 188 184 169 195 177 183 205 200 211 204 205 191 222 180 181 180 210
146 151 149 144 146 190 214 242 238 248 260 260 256 239 230 244 243 243 252 279 288 280 276 285 285 293 283 289 289 292 288 284 274 268 264 263 260 253 250 247 246 241 240 239 234 232 231 231 228 223 226 235 222 204 189 198 201 213 213 188 180 183 192 186 185 194 198 201 193 174 173 166 193 114 84 146 209 244 224 202 215 184 185 173 191
162 157 154 161 179 189 214 221 224 244 254 277 284 283 300 301 302 292 288 288 290 305 327 313 304 303 288 269 287 299 298 280 277 275 276 273 265 263 259 257 253 254 251 247 244 245 250 243 234 232 226 218 218 219 202 195 186 200 200 184 176 182 186 190 200 195 205 199 198 151 164 177 195 174 175 192 203 206 183 169 229 175 127 166 233
159 167 168 177 177 195 197 217 241 336 327 289 284 304 299 293 301 304 297 288 292 302 304 297 313 322 324 321 322 315 298 285 282 283 282 281 283 273 266 261 258 254 255 256 257 247 241 241 247 263 263 244 247 239 217 202 198 200 197 188 189 191 193 191 195 200 197 202 202 175 184 202 194 200 195 203 163 103 121 165 210 182 123 247 249
167 162 173 173 176 191 211 198 108 290 277 282 294 298 288 291 292 303 314 332 335 330 332 337 345 327 295 298 309 295 275 276 297 303 302 295 284 279 274 269 261 257 251 246 250 247 244 244 245 223 213 216 218 221 230 227 217 223 195 204 204 184 175 191 207 198 204 212 196 186 201 202 207 188 204 178 169 176 178 177 180 152 193 211 254
158 163 159 178 181 201 198 177 214 231 246 262 259 260 279 312 334 331 335 348 335 339 13 352 343 347 337 318 302 306 309 326 327 324 320 314 306 286 276 274 271 259 249 243 247 243 237 240 245 242 234 227 190 183 204 206 220 237 210 193 203 210 205 191 198 206 213 211 198 208 195 209 188 183 191 162 186 178 172 160 177 182 185 204 213
140 159 164 172 206 203 185 190 215 219 238 240 242 256 271 355 354 3 350 315 343 13 349 354 351 336 344 342 328 319 317 333 335 328 316 307 302 294 272 259 258 258 248 243 240 232 221 227 238 227 217 189 186 202 206 212 205 205 202 205 213 217 220 223 218 213 203 208 210 210 207 188 181 196 188 190 153 163 148 171 194 199 202 207 222
144 153 161 188 207 183 189 190 202 223 239 242 244 301 12 351 319 311 345 359 14 3 358 5 353 359 347 323 304 320 329 334 337 332 327 322 316 312 285 272 253 246 241 238 236 228 217 218 225 232 211 192 195 191 188 189 188 183 192 208 218 224 226 224 223 219 201 211 209 214 207 177 200 192 182 143 148 176 176 201 190 196 202 215 127
140 153 179 192 193 175 163 177 203 232 222 224 156 10 4 348 353 350 18 12 7 351 337 346 344 346 346 338 342 342 339 340 341 336 332 323 314 306 292 292 288 283 286 270 258 247 236 228 225 232 216 213 225 223 206 205 188 189 195 211 215 220 221 221 220 219 219 222 227 231 179 192 146 130 156 173 179 179 179 183 185 184 138 58 45
144 135 152 154 185 186 161 175 188 206 184 182 61 15 348 347 333 344 28 10 10 11 358 18 9 356 346 352 360 355 343 347 345 345 338 330 329 323 321 325 329 337 339 339 327 334 337 328 317 320 334 329 1 197 210 158 185 210 217 223 228 232 238 237 235 225 215 216 213 199 196 186 174 157 159 163 139 110 88 77 74 88 113 126 246
169 170 178 173 164 161 156 158 187 183 157 104 77 25 12 357 1 15 29 19 21 16 18 9 356 11 4 4 12 357 349 347 350 355 350 341 336 348 15 20 31 32 27 25 37 47 72 120 139 163 209 228 196 199 207 176 202 217 226 232 237 242 250 252 184 154 165 170 191 176 158 162 159 152 157 152 148 135 116 108 156 146 145 220 255
159 159 150 151 177 146 152 165 166 155 135 138 93 360 29 27 17 11 49 26 24 19 16 20 15 18 18 14 12 9 350 350 359 1 3 1 12 16 30 31 29 31 4 14 13 9 3 345 282 249 248 249 179 206 212 184 207 223 232 239 243 245 253 224 24 39 130 148 155 160 164 161 157 159 161 157 148 148 148 191 170 144 203 214 244
162 161 156 161 136 132 148 147 149 142 139 123 130 72 66 69 26 53 47 53 45 20 33 42 25 20 15 13 14 19 356 352 357 1 5 12 27 20 26 28 10 2 358 343 7 10 357 22 328 266 248 248 204 223 221 193 220 222 230 234 245 250 251 152 188 181 161 74 42 79 91 137 133 123 144 153 158 172 177 140 133 169 207 220 230
150 135 123 117 108 106 123 133 144 144 131 118 105 94 96 80 61 75 50 57 54 38 39 42 40 19 8 11 13 12 9 358 359 360 8 10 14 19 11 12 353 345 345 336 326 331 350 340 341 323 284 269 260 249 230 212 217 231 220 233 240 253 210 160 175 160 175 189 198 200 149 114 106 125 150 155 158 165 174 152 160 174 203 210 203
127 127 113 112 111 115 111 126 129 117 116 112 110 94 83 91 82 74 71 57 56 45 39 32 38 23 9 12 17 13 12 2 355 1 3 9 8 12 353 1 352 343 334 326 326 318 320 321 316 318 287 273 261 252 240 232 227 223 216 233 240 190 124 153 175 178 195 193 188 180 146 83 70 67 124 164 178 180 184 184 178 178 186 202 208
129 127 129 124 124 120 124 118 113 119 112 107 98 89 85 92 92 98 89 86 76 60 47 38 38 28 17 15 19 10 5 13 7 1 2 0 1 4 1 344 340 337 328 320 326 324 308 319 312 293 270 263 260 256 247 240 235 231 227 231 234 177 163 178 171 174 165 142 150 200 185 184 198 183 204 213 210 194 181 184 183 191 210 208 207
133 132 128 127 129 129 128 129 128 121 112 114 113 104 106 100 98 102 103 98 92 83 61 49 45 39 30 25 18 17 6 4 18 8 360 359 359 357 354 348 339 337 324 314 321 317 324 311 297 287 274 264 262 261 259 255 249 241 245 223 212 165 137 128 129 128 162 194 200 217 213 203 209 216 214 222 213 198 172 136 193 183 214 207 230
136 131 131 132 135 133 134 130 126 122 124 122 118 121 117 120 115 115 116 110 105 91 76 70 62 47 31 14 13 9 12 14 12 15 8 3 359 3 1 357 352 335 294 287 322 329 326 316 300 287 271 268 269 270 266 261 255 261 260 221 180 127 124 129 159 185 185 198 221 234 235 226 233 239 249 285 245 105 169 224 204 174 105 225 206
136 134 135 137 136 139 129 125 118 114 117 120 120 123 127 132 116 122 117 108 107 103 98 92 82 76 54 36 9 7 7 7 6 9 9 4 2 6 3 2 356 355 346 340 336 322 313 301 299 292 285 290 290 290 290 284 278 265 226 198 177 105 95 83 95 103 197 233 237 244 254 279 281 307 21 92 99 101 113 36 113 138 105 275 243
139 141 142 142 144 141 130 124 118 115 115 113 118 129 135 134 125 128 115 115 117 114 110 100 87 75 70 47 33 18 10 14 9 2 7 2 3 2 4 6 359 359 11 4 350 343 337 333 329 324 322 323 325 326 318 327 321 290 211 187 156 132 135 142 152 180 228 232 241 250 257 207 184 156 144 145 161 195 181 188 181 229 173 218 287
142 143 144 142 145 144 140 138 131 126 124 121 119 125 125 126 120 115 123 124 121 117 110 106 94 84 79 64 49 38 27 20 15 3 4 8 3 1 5 359 360 7 7 3 6 4 359 3 6 360 3 356 354 3 12 4 352 341 355 161 154 161 181 191 200 209 218 220 219 221 217 181 127 126 148 158 204 214 194 213 227 244 177 243 238
148 149 149 148 145 145 138 133 128 120 118 117 117 106 93 97 95 93 105 116 124 119 116 112 112 122 128 122 105 73 49 28 21 9 352 4 358 2 4 9 8 3 2 2 29 17 21 12 18 17 14 12 8 10 7 8 6 0 357 358 4 271 240 267 297 279 273 298 319 21 37 50 16 40 49 260 252 246 175 183 222 227 201 141 246
146 145 147 139 140 140 136 134 129 121 113 90 72 74 93 88 80 53 15 18 52 84 91 82 92 122 108 99 98 79 58 34 322 345 18 18 19 13 359 350 340 354 303 141 51 23 28 23 17 11 16 8 3 1 357 0 347 354 353 344 360 3 294 235 246 259 277 320 295 316 331 64 297 142 212 248 242 207 193 198 227 203 217 188 226
142 144 144 138 136 130 122 115 111 108 106 102 95 71 60 79 90 96 56 45 58 59 67 66 78 73 67 47 71 88 87 331 12 30 24 25 24 23 17 10 20 71 10 83 90 69 43 42 26 21 7 9 359 352 347 344 334 331 319 311 319 318 273 257 261 267 2 208 229 243 237 211 232 210 216 228 236 217 206 199 224 204 192 227 242
137 136 134 133 132 124 121 114 109 105 109 116 114 111 96 64 66 76 82 78 69 64 64 67 65 63 69 52 29 44 38 34 35 31 31 29 30 30 29 31 34 41 85 86 39 63 42 28 2 11 3 3 345 328 326 331 316 316 303 299 288 261 263 259 250 225 230 226 234 220 224 229 244 234 240 244 246 243 199 224 199 219 226 231 247
142 144 138 137 129 130 128 131 127 123 121 122 124 121 115 105 78 63 76 75 68 65 64 67 67 62 58 57 47 15 23 28 32 33 32 34 32 35 40 45 46 51 66 104 82 50 69 46 11 350 345 346 318 309 307 304 301 300 302 316 301 273 244 261 245 206 242 245 247 246 242 245 248 252 250 253 247 246 224 215 218 218 239 239 245
138 138 141 138 138 139 139 135 134 133 133 127 123 124 123 125 118 113 81 72 66 62 62 65 62 56 50 46 42 40 33 29 31 31 31 31 34 43 52 51 46 40 63 75 100 63 50 41 15 340 339 325 312 311 305 297 292 296 289 283 286 282 254 251 219 219 239 244 247 254 251 252 253 257 257 252 248 256 246 237 227 228 231 246 254
143 147 149 148 142 143 140 139 132 127 124 120 124 119 123 126 129 129 124 102 55 46 48 51 54 50 45 43 40 40 43 42 41 37 34 30 38 53 61 51 48 50 61 63 51 39 32 15 349 327 316 301 300 304 306 302 299 288 290 280 272 279 279 236 189 242 246 249 249 255 254 252 250 253 263 264 250 253 257 253 239 236 239 243 251
130 126 131 134 133 135 133 129 127 123 122 120 121 119 117 118 116 119 124 126 115 92 53 11 36 55 47 37 34 39 41 42 42 41 38 36 37 59 62 51 42 29 32 37 40 9 14 345 337 301 285 283 284 276 279 281 282 282 278 282 282 280 281 251 241 251 250 253 254 253 249 253 251 252 256 263 268 259 255 251 245 240 247 249 256
127 126 124 119 118 122 123 124 123 121 121 119 118 115 116 115 110 110 110 110 114 116 93 52 24 37 46 38 33 35 40 42 44 43 40 39 37 45 57 45 47 39 38 25 26 11 11 354 353 344 341 334 324 321 316 314 306 305 300 300 298 294 291 279 272 257 259 255 253 264 269 256 250 250 259 266 262 258 266 266 260 250 248 252 247
121 118 116 116 118 115 111 108 106 111 108 114 113 109 105 105 104 106 105 108 105 98 89 59 32 25 40 36 24 24 35 45 46 46 43 40 39 45 54 45 39 38 35 31 23 16 23 23 20 16 12 15 7 2 1 356 353 347 339 330 317 317 307 308 301 290 280 272 273 267 258 267 264 259 258 265 268 269 262 262 265 265 253 254 258
111 118 123 125 120 114 110 108 109 100 101 101 100 105 105 101 103 108 113 112 113 108 90 71 70 66 45 8 2 25 23 36 44 43 37 35 35 36 35 36 36 38 36 23 19 17 12 11 14 8 360 8 5 1 2 355 356 351 348 344 337 327 325 321 317 312 298 288 285 280 283 278 274 268 264 263 270 271 272 271 269 267 267 263 233
109 112 117 107 107 116 116 113 107 105 101 100 107 111 112 114 112 109 108 111 108 100 96 87 70 62 32 6 16 16 42 39 38 38 26 30 33 36 41 40 41 38 35 28 22 20 9 8 360 2 355 3 4 5 356 352 346 346 341 337 333 334 334 329 326 323 318 299 299 298 294 286 282 276 269 271 273 274 275 274 266 260 261 251 238
122 123 115 111 109 101 105 105 108 107 116 118 114 113 111 111 116 118 121 111 101 93 87 74 65 42 6 12 42 52 68 74 77 63 58 41 46 35 48 47 39 35 36 20 21 18 9 4 356 4 359 4 359 354 351 347 341 336 336 334 331 327 326 328 325 323 320 316 311 306 299 297 291 291 279 266 264 269 273 270 273 263 249 244 239
122 117 113 103 108 108 97 98 101 108 112 108 117 111 110 113 113 111 105 97 95 89 81 80 67 3 356 47 61 87 109 102 93 80 73 67 57 55 46 42 46 29 19 28 18 13 7 7 356 360 356 354 350 348 345 345 340 338 332 326 322 314 317 321 320 322 319 322 314 313 305 302 297 288 279 270 272 268 260 262 262 253 239 227 216
120 117 110 106 99 101 103 98 102 100 102 107 99 104 107 106 104 99 96 96 96 96 88 78 61 360 24 58 62 77 85 82 89 77 68 64 65 53 54 39 30 35 28 15 15 14 357 355 348 342 345 333 342 335 342 337 339 333 325 319 312 309 313 316 326 326 322 316 314 305 302 294 288 275 274 276 264 255 264 259 248 229 219 218 211
112 109 109 104 100 103 111 115 113 108 98 94 93 90 91 92 92 92 97 99 104 103 107 96 59 39 31 43 54 60 64 63 64 62 66 66 58 57 50 30 355 344 348 336 335 9 345 329 326 320 326 315 318 321 321 312 316 320 316 316 313 313 317 320 321 317 310 304 300 301 295 290 286 281 277 270 267 262 252 247 244 221 213 200 198
110 104 102 101 106 101 96 105 101 97 99 93 90 87 86 87 89 92 100 105 106 105 109 109 102 72 38 27 39 53 50 48 53 57 57 51 45 39 7 345 343 353 348 339 330 329 347 354 338 318 317 309 306 311 303 300 304 310 308 317 313 313 310 311 310 312 315 312 304 299 290 285 281 275 270 270 262 250 256 241 222 211 187 182 167
107 112 113 108 101 101 96 87 95 97 93 88 83 80 80 91 97 103 103 104 103 100 100 98 88 88 66 37 48 62 45 41 37 47 29 47 31 342 330 336 337 330 320 320 316 328 345 346 337 328 324 315 315 309 307 304 307 298 297 308 310 307 309 310 310 307 307 299 300 298 293 287 278 272 266 263 248 232 241 225 207 187 178 180 180
110 112 108 108 104 97 96 91 87 85 90 94 98 92 89 86 95 100 101 104 108 107 96 86 83 81 84 62 41 54 20 38 1 338 33 343 357 320 311 311 313 311 311 306 313 327 320 319 325 321 317 311 315 316 311 308 305 304 298 288 282 287 291 294 295 300 298 298 291 287 283 280 276 267 259 250 244 222 216 212 176 188 193 196 195
105 103 100 97 98 99 94 92 89 92 92 90 93 102 97 103 99 88 91 100 100 97 94 87 77 65 57 65 69 352 3 37 298 315 304 282 308 310 310 318 323 314 311 309 299 298 303 311 310 306 301 298 304 306 307 306 306 298 292 284 283 284 288 288 291 288 283 278 274 273 275 279 275 275 270 260 219 218 201 203 191 197 194 193 192
73 75 78 76 81 88 88 83 93 93 91 99 101 101 107 101 94 97 91 84 88 95 95 92 103 157 147 323 271 272 297 282 290 306 315 311 293 291 301 299 290 288 289 297 299 294 291 291 293 296 298 303 308 308 309 306 307 305 302 297 291 282 282 284 279 275 265 265 263 263 265 271 277 268 246 209 208 193 189 217 209 194 194 195 194
76 74 83 85 82 83 96 96 97 93 98 103 102 105 107 99 102 100 103 102 108 114 130 138 278 231 203 258 244 259 274 286 291 292 285 281 282 283 279 274 277 283 292 291 290 295 291 294 299 295 291 291 299 303 305 312 309 308 304 295 287 280 281 284 283 272 268 263 265 274 272 265 246 240 215 196 201 196 197 200 196 206 199 195 191
75 81 79 86 91 90 86 91 87 82 93 111 124 128 119 116 102 110 105 107 94 100 325 210 226 243 234 275 286 285 284 280 278 277 276 274 275 273 277 282 284 282 285 286 287 291 302 302 306 304 298 296 292 293 291 291 292 290 290 283 273 283 306 302 287 281 289 262 252 243 231 226 204 194 189 190 186 181 192 200 199 202 199 201 206
73 84 86 84 81 99 102 104 96 95 112 135 137 139 130 136 161 167 144 198 224 243 245 238 241 254 251 241 252 265 270 268 261 259 263 270 272 279 283 285 288 292 290 288 288 291 292 300 301 300 298 293 290 285 284 282 282 281 273 278 301 320 313 306 283 258 279 252 177 165 167 191 180 177 187 179 165 179 203 199 197 200 203 207 208